Other Public Products
Issued by NWS Grand Forks, ND

Home | Current Version | Previous Version | Graphics & Text | Print | Product List | Glossary On
Versions: 1 2 3 4 5 6 7 8 9 10 11 12 13 14 15 16 17 18 19 20 21 22 23 24 25 26 27 28 29 30 31 32 33 34 35 36 37 38 39 40 41 42 43 44 45 46 47 48 49 50
000
FPUS83 KFGF 241110
OPUFGF
PRAIRIE TO PINES WEATHER ROUNDUP
NATIONAL WEATHER SERVICE EASTERN NORTH DAKOTA/GRAND FORKS ND
600 AM CDT THU APR 24 2014

 **SATELLITE DATA USED TO AUGMENT SKY COVER AT AUTOMATED STATIONS**
 *****  WEATHER ACROSS EASTERN NORTH DAKOTA  *****

CITY           SKY/WX    TMP DP  RH WIND       PRES   REMARKS
GRAND FORKS    CLOUDY    39  38  96 SE12      29.77F
GRAND FORKS AF CLOUDY    38  38 100 SE8       29.77S
GRAND CITY NWS   N/A     37 N/A N/A SE18        N/A
BUXTON         NOT AVBL
DEVILS LAKE    CLOUDY    37  34  87 SE6       29.72S
FARGO          CLOUDY    42  38  85 SE8       29.76S
WAHPETON ARPT  CLOUDY    41  36  81 SE8       29.76F
$$

 *****  WEATHER ACROSS CENTRAL AND WESTERN NORTH DAKOTA  *****

CITY           SKY/WX    TMP DP  RH WIND       PRES   REMARKS
JAMESTOWN      FOG       37  37 100 S6        29.72R VSB 1/4
BISMARCK       CLEAR     38  32  79 W3        29.73R
MINOT          CLEAR     39  31  72 SW13      29.66R
MINOT AFB      CLEAR     34  33  99 W10       29.65S
GARRISON         N/A     33  29  85 W7        29.69S
WILLISTON      PTCLDY    38  27  64 SW7       29.69R
DICKINSON      CLEAR     34  23  64 W10       29.73S
HETTINGER      CLEAR     29  22  75 W8        29.79S WCI  21
$$

 *****  OTHER OBSERVATIONS NORTHEAST NORTH DAKOTA  *****

CITY           SKY/WX    TMP DP  RH WIND       PRES   REMARKS
WALHALLA       CLOUDY    37  37 100 SE12      29.77S FOG
LANGDON        FOG       36  36 100 SE8       29.73R VSB 1/4
CAVALIER       CLOUDY    37  36  93 SE9G16    29.77F FOG
GRAFTON        CLOUDY    37  37 100 SE14      29.78S
CANDO          FOG       37  37 100 S7        29.72R VSB 1/2
FORT TOTTEN      N/A     38  38  99 S6        29.95S
ROLLA          FOG       37  37 100 S10       29.69S VSB<1/4
RUGBY          FOG       36  36 100 SE7       29.67F VSB 1/4
 ***** THE ABOVE OBSERVATIONS ARE NON NWS ARE NOT QUALITY
        CONTROLLED AND MAY MIS-REPORT RAIN FOR SNOW...
$$

 *****  OTHER OBSERVATIONS SOUTHEAST NORTH DAKOTA *****

CITY           SKY/WX    TMP DP  RH WIND       PRES   REMARKS
COOPERSTOWN    CLOUDY    37  37 100 S8        29.73S FOG
VALLEY CITY    CLOUDY    37  37 100 S7        29.73S
OAKES          FAIR      37  37 100 E7        29.73S FOG
GWINNER        MOSUNNY   39  39 100 SE6       29.75S
BUFFALO        NOT AVBL
WYNDMERE       NOT AVBL
 ***** THE ABOVE OBSERVATIONS ARE NON NWS ARE NOT QUALITY
       CONTROLLED AND MAY MIS-REPORT RAIN FOR SNOW...
$$

  *****  WEATHER ACROSS NORTHERN MINNESOTA  *****

CITY           SKY/WX    TMP DP  RH WIND       PRES   REMARKS
FLAG ISLAND    CLOUDY    36  36 100 E12       29.87F
WARROAD        CLOUDY    37  34  87 SE9       29.86F
ROSEAU         CLOUDY    37  34  87 SE10      29.84F
HALLOCK        CLOUDY    39  36  87 SE15      29.79S
THF RVR FALLS  CLOUDY    37  34  87 E12       29.81F
HALSTAD          N/A     40  39  97 SE8         N/A
FOSSTON        CLOUDY    36  36 100 SE9G16    29.80F
BAUDETTE       CLOUDY    37  35  92 E10       29.87F
WASKISH        CLOUDY    36  36 100 E10       29.85F
CROOKSTON      CLOUDY    37  37 100 SE13      29.79F
$$
  *****  WEATHER ACROSS CENTRAL AND WEST MINNESOTA  *****

CITY           SKY/WX    TMP DP  RH WIND       PRES   REMARKS
BEMIDJI        LGT SNOW  34  34  98 E9        29.82F
PARK RAPIDS    CLOUDY    38  37  97 E9        29.80F FOG
WADENA         CLOUDY    39  36  87 E10       29.78F
DETROIT LAKES  CLOUDY    39  37  93 SE12      29.78F
MOORHEAD       CLOUDY    43  43 100 SE7       29.77S
FERGUS FALLS   CLOUDY    41  36  81 SE10      29.74S
ELBOW LAKE     CLOUDY    41  37  86 SE9       29.76S
MORRIS MN      CLOUDY    43  37  81 E8        29.74F
STAPLES        CLOUDY    39  36  87 E5        29.81R
WHEATON        CLOUDY    43  39  87 SE6       29.77F
$$
  *****  WEATHER ELSEWHERE ACROSS MINNESOTA  *****

CITY           SKY/WX    TMP DP  RH WIND       PRES   REMARKS
DULUTH         DRIZZLE   36  34  92 E18       29.93F FOG
INTRNTL FALLS  CLOUDY    37  35  92 E10       29.91F
ELY            CLOUDY    36  36 100 SE6       29.96F
CLOQUET        DRIZZLE   36  36 100 E9        29.91F
BRAINERD       CLOUDY    43  36  76 SE12      29.83S
HIBBING        CLOUDY    36  33  89 SE12      29.91F
ALEXANDRIA     CLOUDY    40  37  89 E10       29.77F
SAINT CLOUD    CLOUDY    43  38  82 E8        29.79F
MINNEAPOLIS    LGT RAIN  41  40  96 E17       29.81F FOG
$$

  *****  WEATHER ACROSS SOUTH DAKOTA  *****

CITY           SKY/WX    TMP DP  RH WIND       PRES   REMARKS
SIOUX FALLS    LGT RAIN  46  45  96 N5        29.65F FOG
BROOKINGS      NOT AVBL
WATERTOWN      CLOUDY    40  38  93 NE6       29.69F
HURON          CLOUDY    43  41  93 N6        29.71S
SISSETON         N/A     40  39  97 SE3       29.73F
ABERDEEN       CLOUDY    38  37  97 CALM      29.74R
MITCHELL       LGT RAIN  45  43  93 NW8       29.70S
PIERRE         CLOUDY    45  34  65 NW14      29.74S
MOBRIDGE       MOCLDY    39  33  79 NW8       29.71F
RAPID CITY     CLEAR     34  20  56 NW9       29.85S
$$

  *****  SOME WEATHER IN NEARBY STATES *****

CITY           SKY/WX    TMP DP  RH WIND       PRES   REMARKS
GLASGOW MT     CLEAR     34  27  75 W8        29.73R
GREAT FALLS MT CLOUDY    32  28  85 SW6       29.79R
CHEYENNE WY    CLEAR     32  14  47 NW5       29.98R
SCOTTSBLUFF NE CLEAR     36  28  73 W10       29.94R
OMAHA NE       CLOUDY    49  45  86 N6        29.62F
DES MOINES IA  CLOUDY    51  42  71 SE15G25   29.66F
DAVENPORT IA   CLOUDY    44  36  73 SE20G29   29.86F
CHICAGO IL     CLOUDY    41  32  70 E7        30.04F
EAU CLAIRE WI  LGT RAIN  38  36  92 E12G21    29.92S
LA CROSSE WI   RAIN      40  38  93 S9        29.90S
$$

  *****  SOME NATIONAL WEATHER *****

CITY           SKY/WX    TMP DP  RH WIND       PRES   REMARKS
LA GUARDIA NY  PTCLDY    43  18  36 NW20G26   29.89R
RALEIGH NC     PTCLDY    42  33  70 CALM      30.10R
ATLANTA GA     CLEAR     54  38  54 NE9       30.02R
NEW ORLEANS LA CLEAR     64  63  96 CALM      29.91S
OKLAHOMA CITY  MOCLDY    65  60  84 S20G29    29.63F
ALBUQUERQUE NM CLEAR     47  12  24 NW8       30.07R
SALT LAKE CITY PTCLDY    41  22  46 SE12      30.06S
LOS ANGELES CA PTCLDY    57  49  74 CALM      29.94S
BOISE ID       CLOUDY    46  35  65 SW6       29.93S
SEATTLE WA     LGT RAIN  52  47  83 S13       29.61S
$$

*** WEATHER ACROSS MANITOBA...SASKATCHEWAN AND ONTARIO ***
                ***ONTARIO***

CITY           SKY/WX    TMP DP  RH WIND       PRES   REMARKS
GERALDTON      MOCLDY    23  19  86 CALM      30.11S
THUNDER BAY    CLOUDY    34  27  75 E12       30.08S
SIOUX LOOKOUT  MOCLDY    37  19  48 SE5       30.00F
TORONTO        PTCLDY    36  19  51 NW6       30.15R
BIG TROUT LK   CLEAR     23  18  80 NE8G17    30.16R WCI  14
PICKLE LAKE    MOCLDY    30  19  64 S9        30.03  WCI  22
DRYDEN         CLOUDY    37  27  65 SE8       29.97F
KENORA         MOCLDY    37  34  87 SE9G17    29.92F
$$
                *** MANITOBA***

CITY           SKY/WX    TMP DP  RH WIND       PRES   REMARKS
BRANDON        CLOUDY    36  36 100 E13       29.71S FOG
DAUPHIN        LGT RAIN  37  36  93 SE17      29.72S
ISLAND LAKE    PTCLDY    25  21  86 E9G22     30.10R WCI  15
PILOT MOUND      N/A     36  36 100 SE14        N/A
THE PAS        CLOUDY    30  28  93 E17G23    29.92R WCI  18
THOMPSON       CLOUDY    21  19  93 E14G21    30.19S WCI   8
WINNIPEG       LGT RAIN  39  37  93 SE17      29.82S
LYNN LAKE      CLOUDY    19  16  86 E17G28    30.15S WCI   4
CHURCHILL      FLURRIES  18  12  79 E7        30.44R WCI   8
GILLAM         CLOUDY    19  16  86 NE15      30.29F WCI   5
$$
                ***SASKATCHEWAN***

CITY           SKY/WX    TMP DP  RH WIND       PRES   REMARKS
ESTEVAN        MOCLDY    34  32  93 SW6       29.64R
KINDERSLEY     CLOUDY    37  32  81 W22       29.59R
LLOYDMINSTER   LGT RAIN  34  34 100 E12       29.55R FOG
PRINCE ALBERT  LGT RAIN  36  34  93 E17G23    29.64S
REGINA         LGT RAIN  41  39  93 W12       29.63R
YORKTON        CLOUDY    36  34  93 SE17G24   29.62R



USA.gov is the U.S. government's official web portal to all federal, state and local government web resources and services.